This is the latest recevied weather packets stored in our database for station/object KQ4PPF. If no packets are shown the sender has not sent any weather packets the latest 10 day(s).
| Time | Temp. | Humidity | Pressure | Rain* | Wind** | Luminosity | Snow |
|---|---|---|---|---|---|---|---|
| 1788559304 | 32.78° C | 60% | 1013 hPa | 0 mm | - | 29 W/m² | - |
| 1788558999 | 32.78° C | 61% | 1013 hPa | 0 mm | - | 28 W/m² | - |
| 1788558695 | 33.33° C | 62% | 1013.2 hPa | 0 mm | - | 21 W/m² | - |
| 1788558395 | 33.33° C | 59% | 1013.2 hPa | 0 mm | - | 21 W/m² | - |
| 1788558091 | 33.89° C | 56% | 1013.2 hPa | 0 mm | - | 24 W/m² | - |
| 1788557788 | 33.89° C | 55% | 1013.2 hPa | 0 mm | - | 23 W/m² | - |
| 1788557485 | 33.89° C | 54% | 1013.3 hPa | 0 mm | - | 23 W/m² | - |
| 1788557180 | 34.44° C | 56% | 1013.3 hPa | 0 mm | - | 23 W/m² | - |
| 1788556875 | 34.44° C | 55% | 1013.4 hPa | 0 mm | - | 23 W/m² | - |
| 1788556575 | 35° C | 53% | 1013.5 hPa | 0 mm | - | 22 W/m² | - |
| 1788556270 | 34.44° C | 53% | 1013.5 hPa | 0 mm | - | 27 W/m² | - |
| 1788555970 | 34.44° C | 56% | 1013.6 hPa | 0 mm | - | 35 W/m² | - |
| 1788555665 | 34.44° C | 55% | 1013.5 hPa | 0 mm | - | 47 W/m² | - |
| 1788555361 | 34.44° C | 57% | 1013.4 hPa | 0 mm | - | 48 W/m² | - |
| 1788555057 | 35° C | 54% | 1013.7 hPa | 0 mm | - | 32 W/m² | - |
| 1788554753 | 35° C | 53% | 1013.4 hPa | 0 mm | - | 36 W/m² | - |
| 1788554448 | 35° C | 51% | 1013.6 hPa | 0 mm | - | 44 W/m² | - |
| 1788554144 | 35° C | 53% | 1013.8 hPa | 0 mm | - | 40 W/m² | - |
| 1788553840 | 35.56° C | 51% | 1013.7 hPa | 0 mm | - | 48 W/m² | - |
| 1788553536 | 35.56° C | 51% | 1013.7 hPa | 0 mm | - | 53 W/m² | - |
| 1788553232 | 35.56° C | 50% | 1014.1 hPa | 0 mm | - | 56 W/m² | - |
| 1788552927 | 35° C | 51% | 1013.8 hPa | 0 mm | - | 49 W/m² | - |
| 1788552622 | 35° C | 52% | 1013.9 hPa | 0 mm | - | 49 W/m² | - |
| 1788552320 | 35° C | 51% | 1013.9 hPa | 0 mm | - | 50 W/m² | - |
| 1788552016 | 35° C | 53% | 1014 hPa | 0 mm | - | 49 W/m² | - |
* Rain latest hour (hover to see other rain measurements)
** Current wind speed in m/s (hover to see current wind gust speed)